Date String (YYYY-MM-DD hh:mm:ss) UTC,Instrument flags,Ambient pressure (hPa),Sample flow (lpm),Bypass flow (lpm),Sample temperature (°C),Ambient temperature (°C),ASC tube jacket temperature (°C),LED temperature (°C),Box temperature (°C),Sample RH (%),Span deviation,Mass concentration (μg/m³),Mass concentration (μg/m³),Mass concentration (μg/m³)
DateTimeUTC,F1_M11,P_M11,Q1_M11,Q2_M11,T1_M11,T2_M11,T3_M11,T4_M11,T5_M11,U1_M11,ZSPAN_M11,X2_M11,X0_M11,X1_M11
2021-11-20 17:00:00,,0827.4,5.01,0.00,27.1,26.3,00.0,36.0,29.0,10.3,0000.0,0004.16,0009.87,0003.39
2021-11-20 17:01:00,,0827.3,5.01,0.00,27.1,26.3,00.0,36.0,29.0,10.3,0000.0,0004.20,0010.06,0003.41
2021-11-20 17:02:00,,0827.3,5.00,0.00,27.1,26.3,00.0,36.0,29.0,10.3,0000.0,0004.24,0010.54,0003.42
2021-11-20 17:03:00,,0827.3,4.99,0.00,27.1,26.3,00.0,36.0,29.0,10.4,0000.0,0004.26,0010.72,0003.43
2021-11-20 17:04:00,,0827.2,5.00,0.00,27.2,26.3,00.0,36.1,29.0,10.4,0000.0,0004.26,0010.39,0003.44
2021-11-20 17:05:00,,0827.2,5.01,0.00,27.2,26.3,00.0,36.1,29.0,10.4,0000.0,0004.26,0010.83,0003.45
2021-11-20 17:06:00,,0827.2,5.00,0.00,27.2,26.3,00.0,36.1,29.0,10.4,0000.0,0004.29,0011.02,0003.47
2021-11-20 17:07:00,,0827.2,4.98,0.00,27.2,26.3,00.0,36.1,29.0,10.4,0000.0,0004.31,0011.20,0003.47
2021-11-20 17:08:00,,0827.2,5.01,0.00,27.1,26.3,00.0,36.1,29.0,10.4,0000.0,0004.31,0010.54,0003.47
2021-11-20 17:09:00,,0827.2,5.00,0.00,27.2,26.3,00.0,36.1,29.0,10.5,0000.0,0004.33,0010.63,0003.47
2021-11-20 17:10:00,,0827.2,4.99,0.00,27.2,26.3,00.0,36.1,29.0,10.4,0000.0,0004.31,0010.64,0003.47
2021-11-20 17:11:00,,0827.2,5.01,0.00,27.2,26.3,00.0,36.1,29.0,10.5,0000.0,0004.30,0011.75,0003.47
2021-11-20 17:12:00,,0827.2,4.99,0.00,27.2,26.3,00.0,36.1,29.0,10.5,0000.0,0004.31,0012.32,0003.48
2021-11-20 17:13:00,,0827.2,5.01,0.00,27.2,26.3,00.0,36.1,29.0,10.5,0000.0,0004.27,0012.61,0003.48
2021-11-20 17:14:00,,0827.2,4.99,0.00,27.2,26.4,00.0,36.1,29.0,10.5,0000.0,0004.27,0012.08,0003.49
2021-11-20 17:15:00,,0827.2,5.00,0.00,27.2,26.4,00.0,36.1,29.0,10.5,0000.0,0004.33,0012.08,0003.51
2021-11-20 17:16:00,,0827.3,5.01,0.00,27.2,26.4,00.0,36.1,29.0,10.7,0000.0,0004.35,0011.85,0003.52
2021-11-20 17:17:00,,0827.2,5.00,0.00,27.2,26.4,00.0,36.1,29.1,10.5,0000.0,0004.37,0011.84,0003.54
2021-11-20 17:18:00,,0827.2,4.99,0.00,27.2,26.4,00.0,36.1,29.1,10.5,0000.0,0004.42,0011.64,0003.58
2021-11-20 17:19:00,,0827.2,5.00,0.00,27.2,26.4,00.0,36.2,29.0,10.5,0000.0,0004.41,0011.51,0003.59
2021-11-20 17:20:00,,0827.2,5.00,0.00,27.3,26.5,00.0,36.2,29.0,10.6,0000.0,0004.43,0011.43,0003.61
2021-11-20 17:21:00,,0827.3,5.00,0.00,27.3,26.5,00.0,36.2,29.1,10.6,0000.0,0004.49,0011.47,0003.63
2021-11-20 17:22:00,,0827.4,4.99,0.00,27.3,26.5,00.0,36.2,29.1,10.5,0000.0,0004.51,0010.80,0003.65
2021-11-20 17:23:00,,0827.4,4.99,0.00,27.3,26.5,00.0,36.2,29.1,10.5,0000.0,0004.55,0010.42,0003.68
2021-11-20 17:24:00,,0827.3,5.00,0.00,27.3,26.5,00.0,36.2,29.2,10.5,0000.0,0004.60,0010.31,0003.71
2021-11-20 17:25:00,,0827.3,5.02,0.00,27.3,26.6,00.0,36.2,29.2,10.6,0000.0,0004.65,0010.63,0003.74
2021-11-20 17:26:00,,0827.3,4.99,0.00,27.3,26.6,00.0,36.2,29.2,10.7,0000.0,0004.67,0011.06,0003.76
2021-11-20 17:27:00,,0827.2,5.00,0.00,27.4,26.6,00.0,36.3,29.2,10.5,0000.0,0004.70,0011.58,0003.80
2021-11-20 17:28:00,,0827.3,5.00,0.00,27.4,26.6,00.0,36.3,29.3,10.5,0000.0,0004.78,0011.75,0003.84
2021-11-20 17:29:00,,0827.2,5.00,0.00,27.4,26.7,00.0,36.3,29.3,10.5,0000.0,0004.81,0012.07,0003.87
2021-11-20 17:30:00,,0827.2,5.00,0.00,27.4,26.7,00.0,36.3,29.3,10.5,0000.0,0004.86,0012.12,0003.91
2021-11-20 17:31:00,,0827.2,5.00,0.00,27.4,26.7,00.0,36.3,29.3,10.5,0000.0,0004.90,0012.75,0003.94
2021-11-20 17:32:00,,0827.2,5.00,0.00,27.4,26.7,00.0,36.3,29.3,10.5,0000.0,0004.92,0013.00,0003.96
2021-11-20 17:33:00,,0827.2,5.00,0.00,27.5,26.7,00.0,36.4,29.3,10.5,0000.0,0005.01,0012.87,0003.99
2021-11-20 17:34:00,,0827.2,5.00,0.00,27.5,26.7,00.0,36.4,29.3,10.5,0000.9,0005.10,0013.02,0004.01
2021-11-20 17:35:00,,0827.2,5.00,0.00,27.5,26.7,00.0,36.4,29.4,10.5,0001.4,0005.16,0013.02,0004.02
2021-11-20 17:36:00,,0827.2,5.01,0.00,27.5,26.7,00.0,36.4,29.4,10.5,0001.4,0005.18,0013.91,0004.01
2021-11-20 17:37:00,,0827.2,5.00,0.00,27.5,26.7,00.0,36.4,29.4,10.5,0001.7,0005.18,0014.06,0004.02
2021-11-20 17:38:00,,0827.2,5.00,0.00,27.5,26.8,00.0,36.4,29.4,10.6,0001.8,0005.18,0013.51,0004.00
2021-11-20 17:39:00,,0827.2,4.99,0.00,27.5,26.8,00.0,36.4,29.4,10.5,0001.0,0005.16,0013.61,0003.98
2021-11-20 17:40:00,,0827.2,5.00,0.00,27.6,26.8,00.0,36.5,29.4,10.3,0000.3,0005.10,0013.41,0003.95
2021-11-20 17:41:00,,0827.2,5.00,0.00,27.6,26.8,00.0,36.5,29.4,10.3,0000.3,0005.07,0013.84,0003.92
2021-11-20 17:42:00,,0827.2,5.00,0.00,27.6,26.8,00.0,36.5,29.5,10.2,-000.0,0005.03,0013.56,0003.90
2021-11-20 17:43:00,,0827.2,4.99,0.00,27.6,26.8,00.0,36.5,29.5,10.3,-000.3,0005.02,0013.22,0003.90
2021-11-20 17:44:00,,0827.2,5.01,0.00,27.6,26.8,00.0,36.5,29.5,10.4,0000.4,0004.95,0013.52,0003.88
2021-11-20 17:45:00,,0827.2,5.01,0.00,27.6,26.8,00.0,36.5,29.5,10.2,0001.1,0004.86,0013.63,0003.84
2021-11-20 17:46:00,,0827.2,4.99,0.00,27.6,26.8,00.0,36.5,29.5,10.0,0000.0,0004.79,0013.31,0003.80
2021-11-20 17:47:00,,0827.1,5.01,0.00,27.6,26.8,00.0,36.6,29.5,10.0,0000.0,0004.72,0012.41,0003.78
2021-11-20 17:48:00,,0827.1,4.98,0.00,27.6,26.8,00.0,36.6,29.5,10.1,0000.0,0004.63,0011.64,0003.75
2021-11-20 17:49:00,,0827.1,5.00,0.00,27.6,26.8,00.0,36.6,29.5,10.2,0000.0,0004.56,0011.78,0003.74
2021-11-20 17:50:00,,0827.1,5.00,0.00,27.6,26.8,00.0,36.6,29.5,10.2,0000.0,0004.51,0011.26,0003.72
2021-11-20 17:51:00,,0827.2,5.00,0.00,27.6,26.8,00.0,36.6,29.4,10.2,0000.0,0004.52,0011.37,0003.72
2021-11-20 17:52:00,,0827.3,5.00,0.00,27.6,26.8,00.0,36.6,29.4,10.2,0000.0,0004.55,0011.17,0003.72
2021-11-20 17:53:00,,0827.1,5.01,0.00,27.6,26.8,00.0,36.6,29.5,10.0,0000.0,0004.59,0011.23,0003.72
2021-11-20 17:54:00,,0826.9,5.01,0.00,27.6,26.8,00.0,36.6,29.4,09.9,0000.0,0004.57,0012.35,0003.71
2021-11-20 17:55:00,,0827.0,4.99,0.00,27.6,26.8,00.0,36.6,29.4,09.9,0000.0,0004.58,0012.90,0003.71
2021-11-20 17:56:00,,0827.0,5.01,0.00,27.6,26.8,00.0,36.6,29.4,09.8,0000.0,0004.55,0013.46,0003.71
2021-11-20 17:57:00,,0827.1,4.99,0.00,27.6,26.7,00.0,36.6,29.4,09.9,0000.0,0004.51,0013.29,0003.73
2021-11-20 17:58:00,,0827.2,5.00,0.00,27.5,26.7,00.0,36.6,29.3,10.0,0000.0,0004.55,0013.25,0003.75
2021-11-20 17:59:00,,0827.2,5.00,0.00,27.5,26.7,00.0,36.6,29.3,10.0,0000.0,0004.64,0013.37,0003.78
